GFSSW_700_spd_276.txt.gz
Wind_Speed
12 12 13 12 11 10 11 11 11 11 11 9 7 9 8 7 8 8 9 8 9 9 9 11 11 14 21 17 16 14 18 20 20 17 8 5 9 8 10 4 6 10 8 2 8
9 9 9 8 8 7 7 9 9 9 9 8 7 8 7 6 7 7 6 5 7 7 8 9 9 12 17 17 15 18 20 20 19 11 4 5 7 11 9 9 10 12 15 7 10
8 8 8 7 7 6 7 7 7 7 7 7 8 6 5 4 6 3 3 4 5 6 9 11 4 9 13 14 17 19 24 19 19 15 14 6 3 11 11 11 15 16 15 11 14
7 6 6 6 6 6 7 7 7 6 6 6 7 5 2 4 5 8 5 3 3 5 9 11 11 14 14 16 16 21 22 22 22 15 11 15 7 9 10 15 25 31 15 14 17
3 4 6 6 6 6 6 7 7 7 6 5 7 6 4 3 6 5 6 3 2 5 8 10 10 10 15 13 15 19 20 21 20 21 11 14 14 12 11 16 16 32 21 13 19
4 6 8 8 9 9 9 10 7 6 6 5 5 7 6 1 16 12 8 6 5 4 3 6 7 9 12 14 16 17 19 21 22 18 19 16 15 12 12 12 8 7 25 15 19
4 7 7 8 10 11 11 10 10 7 5 4 4 7 8 6 12 10 6 5 4 4 6 9 11 12 12 14 13 17 19 16 23 19 18 15 17 17 15 16 14 16 14 16 20
4 5 7 8 8 9 11 11 11 9 3 2 3 4 4 9 9 6 4 6 5 7 9 10 12 13 12 11 12 14 16 20 18 21 19 17 21 18 18 19 20 25 17 17 16
3 4 5 5 7 9 11 11 11 9 4 1 1 4 2 8 9 7 6 4 5 4 5 7 8 9 8 12 12 13 17 20 16 22 19 18 21 19 20 26 23 41 24 18 16
3 3 3 4 5 7 9 9 12 11 7 8 3 3 5 4 4 7 6 8 5 4 2 4 5 7 10 15 19 13 19 13 19 18 20 17 20 16 19 27 21 15 15 17 19
3 4 4 4 5 6 7 6 7 7 2 4 3 5 3 6 6 4 6 5 3 4 5 4 7 13 11 13 18 14 15 13 9 13 5 12 15 21 17 15 13 14 19 12 18
4 5 4 4 5 5 6 4 2 5 1 4 3 1 11 9 5 5 8 7 7 6 5 10 11 11 13 8 7 11 15 15 15 7 5 15 17 16 18 20 21 21 22 29 25
5 4 3 3 3 4 4 4 1 5 6 6 5 2 4 7 5 7 9 8 8 6 10 11 12 5 5 8 13 13 15 16 16 14 12 13 19 20 18 20 19 19 23 24 30
6 4 3 2 3 2 3 2 2 4 4 9 4 3 5 6 3 8 7 10 5 9 11 12 11 4 7 10 11 13 12 15 16 16 17 14 17 20 18 20 23 20 23 27 29
7 6 4 3 3 3 4 4 2 6 4 7 5 7 7 5 4 4 6 9 11 11 9 14 9 9 9 10 10 13 8 7 10 14 19 21 19 22 14 24 29 29 28 28 28
7 6 6 6 5 4 3 2 3 3 4 5 3 3 5 4 4 4 5 10 8 11 11 14 6 9 10 8 8 11 9 10 15 17 17 23 23 26 25 19 18 19 19 25 29
5 5 6 7 8 5 4 2 4 10 3 5 5 6 7 4 5 7 4 7 9 9 9 11 15 15 10 10 10 10 11 15 15 15 15 14 26 23 17 12 17 19 16 21 30
6 6 6 6 7 6 7 1 10 3 2 4 4 5 7 6 9 6 8 10 9 8 12 14 21 9 5 7 12 10 17 15 15 13 9 16 12 7 13 10 13 14 12 16 16
6 6 6 6 5 7 9 10 10 7 3 3 6 8 10 7 7 5 8 5 5 4 6 12 14 10 5 9 11 14 18 14 17 23 20 22 12 24 14 8 8 13 14 20 23
8 6 2 6 6 8 8 15 9 6 4 4 8 7 9 10 7 9 11 6 5 5 5 12 15 7 7 7 13 14 16 17 14 8 13 19 10 19 11 10 5 9 14 10 13
5 4 12 9 7 10 11 7 11 8 5 5 7 9 11 6 8 9 7 4 5 7 8 10 13 15 14 11 11 12 15 16 11 10 7 11 10 15 11 14 2 13 26 24 23
4 1 15 10 7 7 11 9 14 6 4 5 9 6 8 7 9 10 9 3 9 9 7 8 7 13 18 21 17 16 13 16 14 9 3 2 29 17 10 6 25 14 14 36 27
11 10 14 7 6 9 12 11 6 8 7 6 7 9 8 9 7 11 9 7 14 9 8 9 5 13 15 16 12 17 14 14 12 11 16 15 20 22 14 15 22 26 28 27 27
7 3 6 4 9 11 5 8 11 11 9 11 7 8 10 10 11 8 9 10 18 10 18 15 16 12 19 26 20 20 16 15 15 14 20 23 24 19 21 18 21 22 20 19 17
2 6 15 4 6 10 8 8 8 11 13 9 9 12 11 12 13 14 14 12 11 13 12 11 14 16 21 23 25 27 25 21 23 23 25 27 27 23 22 21 18 22 20 24 19
11 12 12 14 12 14 9 8 13 13 11 7 11 9 11 13 11 11 12 9 11 8 6 8 13 11 17 19 23 29 28 27 26 27 28 28 31 22 20 17 15 18 31 18 22
17 15 15 10 8 9 10 12 12 13 11 13 12 10 12 16 21 23 24 22 19 16 15 14 15 13 24 18 22 29 26 27 29 27 27 30 26 19 14 10 15 23 30 38 39

GFSSW_700_spd_279.txt.gz
Wind_Speed
10 11 11 11 11 11 10 11 11 11 10 11 10 9 6 7 8 7 8 6 6 6 6 8 9 10 15 22 19 8 18 25 19 14 3 4 10 12 6 2 11 5 10 2 8
9 8 8 8 8 8 8 8 9 9 9 9 8 7 6 6 6 5 7 6 5 4 6 7 7 9 13 18 19 13 20 25 15 19 10 11 10 14 10 15 13 11 2 3 9
8 6 6 7 7 7 7 7 8 8 8 7 5 6 5 5 4 3 1 3 3 3 6 9 12 5 9 12 15 12 23 18 21 19 12 2 9 9 10 19 14 4 7 2 11
5 4 3 4 4 5 6 6 7 7 7 5 5 6 4 3 2 3 5 4 2 3 7 9 11 6 7 6 4 16 17 20 24 23 19 17 9 10 12 11 22 16 16 4 14
2 3 4 4 4 4 5 6 6 6 6 4 5 7 5 5 7 2 7 5 1 3 6 9 12 9 13 10 10 16 15 19 22 24 18 18 16 15 11 11 16 16 11 8 21
2 3 5 5 6 7 9 9 9 5 4 4 5 7 6 5 7 7 11 7 2 4 5 4 6 6 8 15 19 19 22 23 22 20 23 19 16 16 11 12 17 12 9 4 20
3 3 3 4 6 9 9 9 9 9 3 3 4 6 6 7 8 6 3 4 6 8 5 3 6 10 15 14 10 12 18 18 19 21 25 12 16 13 20 19 20 12 12 7 22
2 1 2 4 6 8 10 10 11 8 4 2 2 4 7 4 7 8 4 4 1 5 8 15 16 19 18 13 14 13 13 20 19 19 19 15 21 15 22 22 22 20 19 17 34
2 1 1 3 5 7 8 9 10 8 5 3 0 1 3 6 10 9 2 4 7 3 4 7 13 12 12 6 10 10 19 19 17 12 22 25 25 16 20 21 26 25 27 15 27
3 2 3 3 4 5 7 6 7 7 6 6 4 1 9 4 4 1 4 12 9 4 2 6 2 2 5 12 24 18 18 18 21 17 22 30 24 17 15 22 24 30 23 15 33
3 3 4 4 4 4 5 6 5 2 2 1 2 2 4 6 12 5 4 5 5 6 1 4 2 10 5 10 11 16 18 16 16 13 9 21 22 12 15 23 19 24 19 19 20
3 3 3 3 3 2 4 6 3 7 4 3 3 3 10 11 6 5 3 5 4 8 4 8 13 4 11 8 9 10 13 16 18 13 12 10 13 15 14 22 24 27 28 21 22
5 4 2 2 2 1 2 3 5 6 6 4 2 1 12 8 6 7 6 10 9 9 7 14 16 11 10 13 11 11 13 16 20 18 21 12 19 21 20 23 21 26 25 28 28
6 5 3 2 1 1 1 3 7 5 6 5 8 7 2 9 2 9 10 7 5 7 9 12 10 4 5 7 8 14 14 16 21 15 19 17 16 21 21 18 25 28 30 26 25
8 6 7 5 3 3 3 5 4 2 3 9 9 6 1 7 2 6 6 4 9 10 10 17 13 11 10 7 10 14 11 12 11 11 17 21 20 25 26 30 27 27 31 30 27
8 9 9 7 7 7 5 1 2 1 6 9 5 3 8 4 7 7 5 7 11 12 11 13 9 6 9 13 8 10 15 9 10 14 16 24 22 30 27 29 24 31 31 27 29
8 7 8 8 10 8 5 3 2 5 3 9 5 6 11 8 8 8 6 4 6 8 10 10 11 12 6 5 7 12 6 7 10 7 9 12 19 20 20 15 16 15 18 21 26
7 6 6 7 9 9 7 7 6 3 10 5 6 3 3 5 5 5 5 9 5 6 7 9 9 8 2 2 11 8 14 14 3 5 8 13 6 9 23 24 13 14 7 6 7
6 6 6 8 7 9 10 9 6 8 7 4 5 5 9 8 10 2 8 6 7 4 1 8 14 3 5 9 9 15 17 15 17 21 11 8 17 10 17 14 12 17 26 25 27
6 5 6 9 4 6 12 16 11 8 9 1 3 4 10 9 12 8 7 4 3 4 10 4 9 7 8 10 9 14 13 14 8 2 7 9 10 10 19 19 15 19 26 25 25
5 4 2 3 6 10 15 15 8 7 10 7 6 11 8 7 4 7 6 7 11 7 7 6 4 12 13 9 15 13 13 10 4 1 4 3 5 8 14 30 21 25 26 21 22
7 6 5 9 11 9 13 6 9 5 5 10 8 12 6 6 5 5 5 5 8 9 10 9 7 14 18 16 13 11 13 8 6 7 4 4 10 19 12 19 20 15 20 19 17
10 12 10 8 9 5 11 15 14 10 6 2 5 4 9 11 4 9 12 12 9 11 11 13 5 7 14 7 5 6 11 14 15 9 13 7 11 10 10 16 11 9 8 4 7
8 7 7 6 9 9 11 6 8 12 13 10 15 10 7 11 11 6 6 9 14 18 18 16 17 14 11 15 18 20 16 17 16 14 15 25 22 21 18 18 9 5 5 8 7
10 5 13 14 11 14 14 12 9 6 9 13 15 17 7 11 11 12 14 17 16 16 17 13 16 19 23 25 22 22 20 18 19 18 22 30 28 21 23 22 24 15 12 14 13
18 19 21 22 15 15 17 13 16 13 8 9 9 12 9 12 17 20 15 10 6 7 10 11 11 13 19 22 23 26 23 23 22 24 28 29 32 23 22 27 27 26 20 24 22
14 15 19 17 15 9 11 12 12 15 15 12 18 17 16 15 17 20 22 20 16 12 16 11 13 13 12 21 22 24 27 26 26 23 25 29 27 25 20 24 26 24 23 24 26

GFSSW_700_spd_285.txt.gz
Wind_Speed
11 11 13 13 13 13 13 13 11 11 10 10 10 11 9 7 7 5 5 7 7 5 8 7 10 11 11 15 19 21 20 21 15 5 9 8 2 7 19 19 6 9 9 3 6
11 11 11 11 10 11 11 10 9 8 8 8 8 7 6 5 5 3 4 5 4 4 6 8 10 11 11 15 19 22 24 19 13 8 4 6 9 17 19 18 16 6 9 2 3
10 10 10 9 9 9 9 8 8 7 7 7 6 4 4 4 1 1 1 2 2 3 4 7 8 9 11 13 20 22 24 18 15 9 8 15 16 7 17 13 4 12 3 4 5
9 9 8 6 6 6 5 6 7 7 7 7 4 3 4 3 4 1 2 2 2 2 4 7 6 7 8 7 13 19 19 18 16 10 12 13 19 15 18 13 8 5 10 6 5
8 6 4 2 1 2 3 4 4 5 6 5 3 3 4 4 3 2 2 1 3 2 5 5 4 5 6 4 5 8 11 16 16 14 12 14 15 12 13 17 9 9 14 10 8
7 5 3 1 1 2 3 4 5 5 4 4 3 3 4 4 3 1 2 2 4 5 10 8 7 6 9 6 7 10 12 12 11 11 11 13 15 10 11 21 15 16 15 13 9
6 5 3 1 1 3 4 5 5 4 3 2 2 3 4 6 3 2 1 2 5 6 10 11 12 9 11 10 9 9 12 11 9 13 13 12 13 8 8 14 18 16 17 15 10
7 4 3 2 1 2 4 6 6 4 2 2 3 3 2 1 1 2 2 4 4 6 6 9 14 13 10 9 11 11 12 12 9 6 11 14 17 13 10 9 11 14 18 19 14
8 6 4 4 4 3 4 4 4 3 1 3 6 7 5 3 6 5 5 5 6 5 4 6 8 7 8 10 7 6 11 15 15 17 7 16 16 15 16 12 15 16 19 21 20
7 6 6 6 6 5 5 5 5 3 1 3 6 6 7 7 7 3 4 4 7 9 8 6 3 4 2 4 6 9 15 15 15 20 19 19 18 15 20 14 17 19 17 21 23
7 7 6 7 7 7 6 6 6 4 2 3 4 5 4 6 8 7 1 3 9 10 6 6 5 7 6 5 11 15 11 12 15 19 17 19 15 4 18 15 18 22 22 22 21
7 7 6 7 6 7 7 4 4 4 1 3 5 5 3 5 7 10 5 6 12 7 3 6 6 15 14 12 9 6 6 13 13 15 9 11 21 16 3 6 16 21 25 22 23
8 7 7 6 7 7 6 5 4 3 2 6 6 5 3 2 4 8 8 9 8 4 5 11 9 17 4 1 5 8 9 7 8 11 7 3 24 19 11 4 8 14 23 34 32
9 9 8 7 9 7 5 3 3 2 4 6 7 6 7 11 10 12 8 5 3 2 8 5 10 15 6 6 5 12 6 8 8 12 7 7 4 27 23 17 12 8 12 17 22
11 10 9 10 11 7 4 4 2 3 3 8 8 7 5 7 9 9 9 5 3 6 6 6 14 10 2 3 7 10 6 12 10 8 7 6 9 18 23 24 25 17 13 14 22
11 12 12 13 12 7 6 3 2 2 1 6 6 5 8 10 8 3 4 2 2 5 4 7 7 8 7 6 9 12 9 11 14 5 5 10 6 11 15 17 18 20 20 13 18
13 12 12 13 14 10 8 4 4 3 3 7 7 6 6 10 10 8 4 3 1 1 4 6 7 6 5 3 3 10 9 5 6 6 3 8 5 7 5 11 16 18 23 19 13
13 11 11 12 12 10 10 7 4 1 2 1 13 9 7 5 9 12 14 12 9 7 7 5 4 10 8 9 7 5 10 3 1 0 4 3 5 3 5 10 17 23 24 12 19
11 10 9 10 10 10 11 10 5 2 1 2 5 13 11 7 6 11 20 18 12 11 8 5 5 7 8 9 6 4 6 5 1 1 0 1 3 4 5 8 15 14 12 12 12
11 9 9 9 11 11 11 14 9 2 3 3 2 4 6 4 8 8 13 12 12 12 12 9 8 10 11 8 2 7 6 3 2 1 1 2 4 2 6 4 9 10 12 14 11
11 10 10 10 11 10 12 13 14 6 4 4 5 4 2 1 1 7 7 11 13 13 10 8 7 10 10 7 9 10 3 1 1 2 5 1 3 11 3 4 4 5 10 11 8
13 12 14 13 10 10 11 11 12 10 8 8 10 11 12 11 5 3 6 6 9 8 7 8 5 9 12 8 4 8 8 6 1 2 5 2 7 5 2 8 6 8 8 9 7
14 15 15 15 11 10 12 11 11 9 9 9 9 11 10 12 7 9 9 7 6 7 4 6 4 6 5 3 14 8 1 6 6 2 7 4 5 11 10 10 14 11 10 9 10
13 17 19 17 18 15 13 11 8 11 14 15 12 11 12 13 14 8 10 11 10 9 7 8 9 9 13 13 9 15 16 20 13 10 7 16 18 19 18 21 18 12 12 13 14
15 17 22 18 23 19 15 10 11 11 14 13 14 15 15 16 16 17 17 15 12 13 15 12 10 14 18 18 15 17 19 21 22 20 21 27 27 26 25 24 22 20 17 17 17
15 18 20 23 22 20 17 15 17 13 13 13 14 14 15 16 21 17 18 15 12 12 16 18 13 13 17 16 16 18 19 22 25 25 27 24 26 24 28 24 19 21 22 21 18
16 19 21 23 21 22 19 17 17 17 18 17 16 14 14 15 18 21 24 23 17 13 11 14 15 14 12 19 20 19 25 27 26 20 19 21 20 20 20 19 19 22 20 20 18

GFSSW_700_spd_291.txt.gz
Wind_Speed
12 12 12 12 13 14 13 12 12 12 10 9 7 7 6 6 5 2 2 2 2 3 3 4 4 5 8 8 10 15 14 11 6 7 6 7 3 5 6 10 12 14 13 12 8
12 12 13 12 13 12 10 10 9 8 7 6 5 4 3 4 2 1 1 1 0 1 2 2 2 5 7 8 11 15 16 10 6 7 2 1 1 4 3 9 13 8 10 9 9
12 12 12 11 10 9 8 7 7 6 5 4 4 2 4 5 4 3 4 3 2 2 3 3 3 4 6 6 8 11 14 13 7 5 5 4 4 5 2 4 8 7 11 9 8
11 12 10 9 6 5 5 4 4 4 4 4 4 3 5 5 4 4 3 4 3 4 5 7 7 6 6 4 6 7 7 9 11 9 9 5 5 4 5 4 6 5 9 8 6
11 9 7 5 3 3 4 5 5 3 1 4 3 5 7 7 6 3 2 3 5 7 10 10 10 9 8 7 5 4 4 6 6 9 10 7 5 7 4 11 11 7 7 9 10
9 7 4 2 2 3 4 6 6 4 2 4 5 6 7 6 6 3 2 4 7 9 9 7 8 7 8 6 5 3 4 4 4 6 7 7 7 5 4 8 8 8 6 6 11
8 5 3 2 2 2 4 6 7 6 4 4 6 7 8 7 5 4 5 6 8 8 6 3 3 5 4 5 4 3 4 4 4 4 8 9 10 7 7 8 10 6 6 4 9
6 5 5 3 3 2 4 5 7 6 4 4 7 9 10 8 5 7 7 8 7 5 3 1 1 1 1 2 3 3 3 6 5 5 4 6 9 8 12 11 12 8 5 1 5
7 7 6 5 3 2 4 4 4 4 4 5 8 10 9 6 6 8 9 8 7 5 1 3 4 3 1 1 6 5 2 6 4 6 4 2 6 10 13 17 15 13 8 5 11
7 7 6 5 4 3 4 5 4 2 2 6 9 7 8 6 7 11 9 7 7 7 8 10 13 15 11 9 7 4 6 6 5 4 6 6 5 7 16 20 25 14 12 9 15
7 7 6 5 4 4 4 4 4 1 3 4 7 6 10 6 8 11 10 9 10 10 11 15 14 10 7 9 7 6 7 7 2 3 6 10 12 8 5 11 7 7 9 10 14
7 7 6 5 5 3 3 3 3 2 2 4 7 8 10 9 9 9 9 12 12 11 11 12 12 9 7 6 7 7 9 7 4 9 8 8 10 12 12 10 10 3 6 11 16
8 6 5 5 4 2 2 2 2 2 5 7 11 11 11 10 9 9 10 15 11 10 12 14 10 10 10 7 8 8 7 6 2 1 1 3 11 13 16 17 14 12 9 9 14
8 7 7 6 4 2 1 0 2 3 5 8 9 8 12 12 9 13 15 11 8 7 8 10 10 6 7 5 6 6 6 4 2 3 3 2 4 10 11 13 12 13 12 12 10
8 9 8 7 5 4 3 0 1 5 3 11 8 14 14 9 10 11 12 10 7 4 7 8 9 8 6 2 3 1 2 2 4 5 3 4 2 4 5 10 12 12 11 16 18
9 9 9 9 7 5 5 2 3 3 3 8 10 11 14 13 10 10 11 8 5 6 8 6 6 6 5 3 2 2 2 3 4 4 2 5 1 1 3 9 14 13 9 10 16
9 9 10 10 9 8 7 5 4 3 11 7 11 13 15 13 10 7 8 7 5 8 6 2 4 3 3 2 2 2 2 4 1 1 2 2 1 2 4 8 9 10 13 12 14
10 9 11 10 10 10 10 8 5 7 10 8 11 13 13 12 9 8 6 6 6 6 4 2 4 4 8 5 3 0 1 2 3 2 2 2 2 1 5 7 8 8 12 14 13
10 10 11 11 11 12 12 11 5 9 11 10 13 12 11 10 10 11 11 11 9 7 4 3 3 2 3 5 1 2 1 2 2 2 3 1 3 3 2 8 5 5 8 12 14
11 10 11 11 11 12 13 12 8 11 10 11 10 11 13 13 11 10 10 7 15 13 10 8 4 3 1 3 3 1 4 3 3 2 3 2 4 4 2 2 4 2 4 8 8
10 11 12 12 12 13 14 12 12 12 10 9 9 8 11 14 13 12 9 10 11 12 12 11 10 7 6 5 10 5 6 6 5 5 5 5 5 7 6 7 7 4 2 4 5
9 12 13 14 14 14 13 13 14 16 11 9 11 9 11 10 9 9 11 10 12 12 12 12 7 6 7 8 6 4 4 6 6 6 7 5 10 8 7 9 9 9 9 9 9
10 14 14 16 15 14 11 12 12 12 15 13 10 11 10 9 7 8 8 8 10 13 10 12 7 5 1 2 6 7 8 9 10 8 9 7 6 9 9 9 8 11 13 13 12
11 13 16 18 19 14 12 11 10 10 16 15 15 13 11 9 8 6 10 9 11 12 13 12 12 10 12 9 9 10 13 17 15 8 11 15 16 16 17 21 24 24 22 19 14
12 13 16 17 23 18 15 8 11 12 13 16 16 14 12 11 11 10 9 10 11 13 13 11 12 14 15 14 16 16 17 21 23 21 16 18 21 26 24 25 25 23 20 19 17
12 14 16 19 16 18 19 16 13 14 13 14 16 16 15 14 13 10 9 10 11 12 15 16 13 15 16 17 17 20 20 21 22 22 26 27 30 27 25 24 22 21 19 15 18
14 14 15 17 19 17 17 16 16 16 15 15 15 15 15 14 13 12 11 10 10 11 12 14 15 13 14 14 15 16 26 25 27 28 27 24 22 19 15 13 14 15 15 16 18